When you browse on this site, cookies collect data to enhance your experience and personalize the content and advertising you see.
Visit our Privacy Policy to learn more. By continuing to use the site, you agree to this use of cookies and data.
  • în România
  • Lista ţărilor
  • Pe 7 zile
  • Temperatura apei
  • Hartă satelitară
  • Meteo pe hartă
  • Widget-uri
  • user-avatar
    Intrare

    Meteo pe oră la Tirana

    Astăzi, 18 Iunie, Marţi

    Timp Temperatura Precipitaţii Vânt Presiune Umiditate
    00:00 +23°C° 0.1 mm 1 m/s 752 mmHg 79%
    01:00 +21°C° 0.1 mm 0 m/s 752 mmHg 77%
    02:00 +22°C° 0.1 mm 1 m/s 752 mmHg 77%
    03:00 +22°C° 0.1 mm 1 m/s 752 mmHg 77%
    04:00 +22°C° 0.1 mm 1 m/s 752 mmHg 77%
    05:00 +23°C° 0 mm 1 m/s 752 mmHg 72%
    06:00 +25°C° 0 mm 1 m/s 753 mmHg 66%
    07:00 +26°C° 0 mm 1 m/s 753 mmHg 60%
    08:00 +28°C° 0 mm 1 m/s 753 mmHg 56%
    09:00 +29°C° 0 mm 1 m/s 753 mmHg 52%
    10:00 +31°C° 0 mm 1 m/s 753 mmHg 48%
    11:00 +31°C° 0 mm 2 m/s 753 mmHg 47%
    12:00 +33°C° 0 mm 3 m/s 752 mmHg 46%
    13:00 +34°C° 0 mm 4 m/s 752 mmHg 45%
    14:00 +33°C° 0 mm 4 m/s 752 mmHg 47%
    15:00 +32°C° 0 mm 4 m/s 752 mmHg 50%
    16:00 +30°C° 0 mm 3 m/s 751 mmHg 52%
    17:00 +29°C° 0 mm 3 m/s 751 mmHg 60%
    18:00 +27°C° 0 mm 2 m/s 752 mmHg 67%
    19:00 +25°C° 0 mm 2 m/s 752 mmHg 75%
    20:00 +24°C° 0 mm 1 m/s 752 mmHg 77%
    21:00 +24°C° 0 mm 1 m/s 752 mmHg 79%
    22:00 +23°C° 0 mm 1 m/s 752 mmHg 80%
    23:00 +22°C° 0 mm 1 m/s 752 mmHg 81%

    Mâine, 19 Iunie, Miercuri

    Timp Temperatura Precipitaţii Vânt Presiune Umiditate
    00:00 +22°C° 0 mm 1 m/s 752 mmHg 81%
    01:00 +22°C° 0 mm 1 m/s 752 mmHg 81%
    02:00 +21°C° 0 mm 1 m/s 752 mmHg 80%
    03:00 +21°C° 0 mm 1 m/s 752 mmHg 79%
    04:00 +21°C° 0 mm 1 m/s 751 mmHg 78%
    05:00 +23°C° 0 mm 1 m/s 751 mmHg 73%
    06:00 +22°C° 0 mm 0 m/s 752 mmHg 67%
    07:00 +24°C° 0 mm 0 m/s 752 mmHg 62%
    08:00 +27°C° 0 mm 1 m/s 752 mmHg 57%
    09:00 +29°C° 0 mm 1 m/s 751 mmHg 51%
    10:00 +30°C° 0 mm 2 m/s 751 mmHg 46%
    11:00 +31°C° 0 mm 3 m/s 751 mmHg 47%
    12:00 +31°C° 0 mm 3 m/s 751 mmHg 48%
    13:00 +32°C° 0 mm 4 m/s 751 mmHg 49%
    14:00 +32°C° 0 mm 4 m/s 751 mmHg 52%
    15:00 +30°C° 0 mm 4 m/s 750 mmHg 55%
    16:00 +29°C° 0 mm 3 m/s 750 mmHg 58%
    17:00 +28°C° 0 mm 3 m/s 750 mmHg 65%
    18:00 +26°C° 0 mm 2 m/s 750 mmHg 72%
    19:00 +25°C° 0 mm 2 m/s 751 mmHg 79%
    20:00 +24°C° 0 mm 1 m/s 751 mmHg 82%
    21:00 +23°C° 0 mm 1 m/s 751 mmHg 84%
    22:00 +21°C° 0 mm 0 m/s 751 mmHg 86%
    23:00 +22°C° 0 mm 1 m/s 751 mmHg 87%

    Poimâine, 20 Iunie, Joi

    Timp Temperatura Precipitaţii Vânt Presiune Umiditate
    00:00 +22°C° 0 mm 1 m/s 751 mmHg 88%
    01:00 +22°C° 0 mm 1 m/s 751 mmHg 89%
    02:00 +21°C° 0 mm 1 m/s 751 mmHg 89%
    03:00 +21°C° 0 mm 1 m/s 751 mmHg 89%
    04:00 +21°C° 0 mm 1 m/s 751 mmHg 89%
    05:00 +22°C° 0 mm 1 m/s 751 mmHg 82%
    06:00 +24°C° 0 mm 1 m/s 751 mmHg 75%
    07:00 +26°C° 0 mm 1 m/s 751 mmHg 68%
    08:00 +27°C° 0 mm 1 m/s 751 mmHg 61%
    09:00 +28°C° 0 mm 2 m/s 751 mmHg 55%
    10:00 +30°C° 0 mm 2 m/s 751 mmHg 48%
    11:00 +30°C° 0 mm 2 m/s 751 mmHg 48%
    12:00 +30°C° 0 mm 3 m/s 751 mmHg 48%
    13:00 +30°C° 0 mm 3 m/s 751 mmHg 47%
    14:00 +30°C° 0 mm 3 m/s 751 mmHg 49%
    15:00 +30°C° 0 mm 3 m/s 751 mmHg 51%
    16:00 +29°C° 0 mm 3 m/s 750 mmHg 53%
    17:00 +28°C° 0 mm 2 m/s 751 mmHg 61%
    18:00 +26°C° 0 mm 2 m/s 751 mmHg 68%
    19:00 +24°C° 0 mm 1 m/s 751 mmHg 76%
    20:00 +24°C° 0 mm 1 m/s 751 mmHg 77%
    21:00 +23°C° 0 mm 1 m/s 751 mmHg 79%
    22:00 +21°C° 0 mm 0 m/s 752 mmHg 80%
    23:00 +22°C° 0 mm 1 m/s 752 mmHg 81%

    21 Iunie, Vineri

    Timp Temperatura Precipitaţii Vânt Presiune Umiditate
    00:00 +22°C° 0 mm 1 m/s 752 mmHg 81%
    01:00 +22°C° 0 mm 1 m/s 752 mmHg 82%
    02:00 +22°C° 0 mm 1 m/s 752 mmHg 83%
    03:00 +21°C° 0 mm 1 m/s 752 mmHg 84%
    04:00 +21°C° 0 mm 1 m/s 752 mmHg 84%
    05:00 +23°C° 0 mm 1 m/s 752 mmHg 78%
    06:00 +24°C° 0 mm 1 m/s 752 mmHg 71%
    07:00 +26°C° 0 mm 2 m/s 752 mmHg 64%
    08:00 +28°C° 0 mm 1 m/s 752 mmHg 59%
    09:00 +29°C° 0 mm 1 m/s 752 mmHg 54%
    10:00 +31°C° 0 mm 1 m/s 752 mmHg 49%
    11:00 +31°C° 0 mm 2 m/s 752 mmHg 50%
    12:00 +33°C° 0 mm 3 m/s 752 mmHg 50%
    13:00 +33°C° 0 mm 4 m/s 752 mmHg 50%
    14:00 +33°C° 0 mm 4 m/s 752 mmHg 52%
    15:00 +32°C° 0 mm 4 m/s 752 mmHg 54%
    16:00 +30°C° 0 mm 4 m/s 751 mmHg 57%
    17:00 +29°C° 0 mm 3 m/s 752 mmHg 63%
    18:00 +27°C° 0 mm 2 m/s 752 mmHg 69%
    19:00 +26°C° 0 mm 1 m/s 752 mmHg 75%
    20:00 +25°C° 0 mm 1 m/s 752 mmHg 77%
    21:00 +25°C° 0 mm 1 m/s 753 mmHg 79%
    22:00 +22°C° 0 mm 0 m/s 753 mmHg 81%
    23:00 +22°C° 0 mm 0 m/s 753 mmHg 82%

    22 Iunie, Sâmbătă

    Timp Temperatura Precipitaţii Vânt Presiune Umiditate
    00:00 +22°C° 0 mm 0 m/s 753 mmHg 82%
    01:00 +21°C° 0 mm 0 m/s 753 mmHg 82%
    02:00 +21°C° 0 mm 0 m/s 753 mmHg 82%
    03:00 +23°C° 0 mm 1 m/s 753 mmHg 82%
    04:00 +23°C° 0 mm 1 m/s 753 mmHg 82%
    05:00 +24°C° 0 mm 1 m/s 753 mmHg 75%
    06:00 +26°C° 0 mm 1 m/s 753 mmHg 68%
    07:00 +28°C° 0 mm 1 m/s 753 mmHg 61%
    08:00 +30°C° 0 mm 1 m/s 753 mmHg 56%
    09:00 +31°C° 0 mm 2 m/s 753 mmHg 51%
    10:00 +34°C° 0 mm 2 m/s 753 mmHg 45%
    11:00 +35°C° 0 mm 2 m/s 753 mmHg 42%
    12:00 +36°C° 0 mm 3 m/s 753 mmHg 39%
    13:00 +37°C° 0 mm 3 m/s 753 mmHg 36%
    14:00 +36°C° 0 mm 3 m/s 753 mmHg 41%
    15:00 +35°C° 0 mm 3 m/s 753 mmHg 45%
    16:00 +34°C° 0 mm 3 m/s 752 mmHg 49%
    17:00 +31°C° 0 mm 3 m/s 753 mmHg 56%
    18:00 +30°C° 0 mm 2 m/s 753 mmHg 63%
    19:00 +28°C° 0 mm 2 m/s 753 mmHg 70%
    20:00 +27°C° 0 mm 1 m/s 753 mmHg 70%
    21:00 +27°C° 0 mm 1 m/s 753 mmHg 71%
    22:00 +24°C° 0 mm 0 m/s 754 mmHg 71%
    23:00 +24°C° 0 mm 0 m/s 754 mmHg 71%

    23 Iunie, Duminică

    Timp Temperatura Precipitaţii Vânt Presiune Umiditate
    00:00 +23°C° 0 mm 0 m/s 753 mmHg 71%
    01:00 +23°C° 0 mm 0 m/s 753 mmHg 71%
    02:00 +25°C° 0 mm 1 m/s 753 mmHg 70%
    03:00 +25°C° 0 mm 1 m/s 753 mmHg 68%
    04:00 +25°C° 0 mm 2 m/s 753 mmHg 67%
    05:00 +27°C° 0 mm 1 m/s 753 mmHg 61%
    06:00 +28°C° 0 mm 1 m/s 754 mmHg 55%
    07:00 +30°C° 0 mm 1 m/s 754 mmHg 49%
    08:00 +32°C° 0 mm 1 m/s 754 mmHg 43%
    09:00 +35°C° 0 mm 2 m/s 754 mmHg 38%
    10:00 +37°C° 0 mm 2 m/s 754 mmHg 32%
    11:00 +36°C° 0 mm 2 m/s 754 mmHg 35%
    12:00 +36°C° 0 mm 3 m/s 754 mmHg 39%
    13:00 +35°C° 0 mm 3 m/s 754 mmHg 42%
    14:00 +35°C° 0 mm 3 m/s 754 mmHg 42%
    15:00 +35°C° 0 mm 2 m/s 754 mmHg 42%
    16:00 +34°C° 0 mm 2 m/s 753 mmHg 42%
    17:00 +32°C° 0 mm 2 m/s 754 mmHg 49%
    18:00 +30°C° 0 mm 1 m/s 754 mmHg 56%
    19:00 +28°C° 0 mm 1 m/s 754 mmHg 63%
    20:00 +27°C° 0 mm 1 m/s 754 mmHg 64%
    21:00 +26°C° 0 mm 1 m/s 754 mmHg 66%
    22:00 +26°C° 0 mm 1 m/s 755 mmHg 68%
    23:00 +25°C° 0 mm 1 m/s 755 mmHg 69%
    Arată mai mult